Location: Bratislava
(48.1500°N, 17.1170°E)
Time: 09:47:49
(UTC+02:00)

N. Korean satellite - Visible Passes

Search period start: 14 October 2019 00:00
Search period end: 24 October 2019 00:00
Orbit: 455 x 508 km, 97.2° (Epoch: 13 October)

Date Brightness Start Highest point End Pass type
(mag) Time Alt. Az. Time Alt. Az. Time Alt. Az.
14 Oct 9.1 06:13:12 10° NE 06:16:16 26° E 06:19:21 10° SSE visible
15 Oct 10.1 05:48:47 10° ENE 05:50:48 14° E 05:52:48 10° SE visible
16 Oct 10.4 19:10:30 10° WSW 19:11:36 11° W 19:12:42 10° WNW visible
17 Oct 8.1 06:30:26 10° NNE 06:33:52 42° E 06:37:19 10° S visible
17 Oct 9.6 18:43:23 10° SW 18:46:05 21° W 18:48:48 10° NW visible
18 Oct 9.5 06:05:34 10° NE 06:08:27 22° E 06:11:21 10° SSE visible
19 Oct 10.3 05:41:29 10° ENE 05:42:57 12° E 05:44:24 10° ESE visible
20 Oct 10.1 19:01:52 10° WSW 19:03:42 14° W 19:05:33 10° WNW visible
21 Oct 8.5 06:22:41 10° NNE 06:26:03 35° E 06:29:25 10° SSE visible
21 Oct 9.1 18:35:16 10° SSW 18:38:12 26° W 18:41:10 10° NW visible
22 Oct 9.8 05:57:57 10° NE 06:00:35 19° E 06:03:14 10° SE visible
